Date,TemperatureHighF,TemperatureAvgF,TemperatureLowF,DewpointHighF,DewpointAvgF,DewpointLowF,HumidityHigh,HumidityAvg,HumidityLow,PressureMaxIn,PressureMinIn,WindSpeedMaxMPH,WindSpeedAvgMPH,GustSpeedMaxMPH,PrecipitationSumIn
2013-1-1,33,28,25,-100,-100,-100,0,0,100,0.00,40.00,0,-999,0,0.00
2013-1-2,35,23,14,-100,-100,-100,0,0,100,0.00,40.00,0,-999,0,0.00
2013-1-3,38,30,19,-100,-100,-100,0,0,100,0.00,40.00,0,-999,0,0.00
2013-1-4,37,31,25,-100,-100,-100,0,0,100,0.00,40.00,0,-999,0,0.00
2013-1-5,39,33,28,-100,-100,-100,0,0,100,0.00,40.00,0,-999,0,0.00
2013-1-6,36,33,28,-100,-100,-100,0,0,100,0.00,40.00,0,-999,0,0.00
2013-1-7,39,30,22,-100,-100,-100,0,0,100,0.00,40.00,0,-999,0,0.00
2013-1-8,47,37,27,-100,-100,-100,0,0,100,0.00,40.00,0,-999,0,0.00
2013-1-9,55,49,43,-100,-100,-100,0,0,100,0.00,40.00,0,-999,0,0.00
2013-1-10,58,46,41,-100,-100,-100,0,0,100,0.00,40.00,0,-999,0,0.00
2013-1-11,58,56,52,-100,-100,-100,0,0,100,0.00,40.00,0,-999,0,0.00
2013-1-12,62,53,42,-100,-100,-100,0,0,100,0.00,40.00,0,-999,0,0.00
2013-1-13,34,29,23,-100,-100,-100,0,0,100,0.00,40.00,0,-999,0,0.00
2013-1-14,27,24,21,-100,-100,-100,0,0,100,0.00,40.00,0,-999,0,0.00
2013-1-15,32,26,20,-100,-100,-100,0,0,100,0.00,40.00,0,-999,0,0.00
2013-1-16,36,31,27,-100,-100,-100,0,0,100,0.00,40.00,0,-999,0,0.00
2013-1-17,43,35,30,-100,-100,-100,0,0,100,0.00,40.00,0,-999,0,0.00
2013-1-18,44,34,23,-100,-100,-100,0,0,100,0.00,40.00,0,-999,0,0.00
2013-1-19,52,45,37,-100,-100,-100,0,0,100,0.00,40.00,0,-999,0,0.00
2013-1-20,41,35,28,-100,-100,-100,0,0,100,0.00,40.00,0,-999,0,0.00
2013-1-21,28,24,19,-100,-100,-100,0,0,100,0.00,40.00,0,-999,0,0.00
2013-1-22,21,18,15,-100,-100,-100,0,0,100,0.00,40.00,0,-999,0,0.00
2013-1-23,41,26,15,-100,-100,-100,0,0,100,0.00,40.00,0,-999,0,0.00
2013-1-24,29,24,20,-100,-100,-100,0,0,100,0.00,40.00,0,-999,0,0.00
2013-1-25,42,32,26,-100,-100,-100,0,0,100,0.00,40.00,0,-999,0,0.00
2013-1-26,38,31,25,-100,-100,-100,0,0,100,0.00,40.00,0,-999,0,0.00
2013-1-27,47,36,29,-100,-100,-100,0,0,100,0.00,40.00,0,-999,0,0.00
2013-1-28,60,57,51,-100,-100,-100,0,0,100,0.00,40.00,0,-999,0,0.00
2013-1-29,65,61,53,-100,-100,-100,0,0,100,0.00,40.00,0,-999,0,0.00
2013-1-30,52,42,30,-100,-100,-100,0,0,100,0.00,40.00,0,-999,0,0.00
2013-1-31,35,29,19,-100,-100,-100,0,0,100,0.00,40.00,0,-999,0,0.00
2013-2-1,25,18,12,-100,-100,-100,0,0,100,0.00,40.00,0,-999,0,0.00
2013-2-2,40,33,26,-100,-100,-100,0,0,100,0.00,40.00,0,-999,0,0.00
2013-2-3,32,29,21,-100,-100,-100,0,0,100,0.00,40.00,0,-999,0,0.00
2013-2-4,43,35,26,-100,-100,-100,0,0,100,0.00,40.00,0,-999,0,0.00
2013-2-5,53,41,30,-100,-100,-100,0,0,100,0.00,40.00,0,-999,0,0.00
2013-2-6,47,39,28,-100,-100,-100,0,0,100,0.00,40.00,0,-999,0,0.00
2013-2-7,63,45,36,-100,-100,-100,0,0,100,0.00,40.00,0,-999,0,0.00
2013-2-8,42,37,32,-100,-100,-100,0,0,100,0.00,40.00,0,-999,0,0.00
2013-2-9,43,38,32,-100,-100,-100,0,0,100,0.00,40.00,0,-999,0,0.00
2013-2-10,54,47,40,-100,-100,-100,0,0,100,0.00,40.00,0,-999,0,0.00
2013-2-11,50,45,37,-100,-100,-100,0,0,100,0.00,40.00,0,-999,0,0.00
2013-2-12,47,42,33,-100,-100,-100,0,0,100,0.00,40.00,0,-999,0,0.00
2013-2-13,48,42,36,-100,-100,-100,0,0,100,0.00,40.00,0,-999,0,0.00
2013-2-14,56,42,34,-100,-100,-100,0,0,100,0.00,40.00,0,-999,0,0.00
2013-2-15,41,36,29,-100,-100,-100,0,0,100,0.00,40.00,0,-999,0,0.00
2013-2-16,36,29,25,-100,-100,-100,0,0,100,0.00,40.00,0,-999,0,0.00
2013-2-17,43,34,20,-100,-100,-100,0,0,100,0.00,40.00,0,-999,0,0.00
2013-2-18,50,45,37,-100,-100,-100,0,0,100,0.00,40.00,0,-999,0,0.00
2013-2-19,37,32,28,-100,-100,-100,0,0,100,0.00,40.00,0,-999,0,0.00
2013-2-20,29,26,23,-100,-100,-100,0,0,100,0.00,40.00,0,-999,0,0.00
2013-2-21,32,27,21,-100,-100,-100,0,0,100,0.00,40.00,0,-999,0,0.00
2013-2-22,36,32,25,-100,-100,-100,0,0,100,0.00,40.00,0,-999,0,0.00
2013-2-23,36,29,23,-100,-100,-100,0,0,100,0.00,40.00,0,-999,0,0.00
2013-2-24,44,34,25,-100,-100,-100,0,0,100,0.00,40.00,0,-999,0,0.00
2013-2-25,47,39,32,-100,-100,-100,0,0,100,0.00,40.00,0,-999,0,0.00
2013-2-26,47,41,37,-100,-100,-100,0,0,100,0.00,40.00,0,-999,0,0.00
2013-2-27,38,36,32,-100,-100,-100,0,0,100,0.00,40.00,0,-999,0,0.00
2013-2-28,36,34,32,-100,-100,-100,0,0,100,0.00,40.00,0,-999,0,0.00
2013-3-1,36,33,32,-100,-100,-100,0,0,100,0.00,40.00,0,-999,0,0.00
2013-3-2,33,30,29,-100,-100,-100,0,0,100,0.00,40.00,0,-999,0,0.00
2013-3-3,41,30,21,-100,-100,-100,0,0,100,0.00,40.00,0,-999,0,0.00
2013-3-4,51,43,34,-100,-100,-100,0,0,100,0.00,40.00,0,-999,0,0.00
2013-3-5,44,38,32,-100,-100,-100,0,0,100,0.00,40.00,0,-999,0,0.00
2013-3-6,37,34,31,-100,-100,-100,0,0,100,0.00,40.00,0,-999,0,0.00
2013-3-7,42,33,27,-100,-100,-100,0,0,100,0.00,40.00,0,-999,0,0.00
2013-3-8,49,37,29,-100,-100,-100,0,0,100,0.00,40.00,0,-999,0,0.00
2013-3-9,63,50,40,-100,-100,-100,0,0,100,0.00,40.00,0,-999,0,0.00
2013-3-10,62,55,48,-100,-100,-100,0,0,100,0.00,40.00,0,-999,0,0.00
2013-3-11,47,40,36,-100,-100,-100,0,0,100,0.00,40.00,0,-999,0,0.00
2013-3-12,49,39,30,-100,-100,-100,0,0,100,0.00,40.00,0,-999,0,0.00
2013-3-13,38,35,29,-100,-100,-100,0,0,100,0.00,40.00,0,-999,0,0.00
2013-3-14,42,32,25,-100,-100,-100,0,0,100,0.00,40.00,0,-999,0,0.00
2013-3-15,70,53,31,-100,-100,-100,0,0,100,0.00,40.00,0,-999,0,0.00
2013-3-16,62,51,42,-100,-100,-100,0,0,100,0.00,40.00,0,-999,0,0.00
2013-3-17,38,35,32,-100,-100,-100,0,0,100,0.00,40.00,0,-999,0,0.00
2013-3-18,44,40,36,-100,-100,-100,0,0,100,0.00,40.00,0,-999,0,0.00
2013-3-19,47,37,30,-100,-100,-100,0,0,100,0.00,40.00,0,-999,0,0.00
2013-3-20,36,32,28,-100,-100,-100,0,0,100,0.00,40.00,0,-999,0,0.00
2013-3-21,35,29,22,-100,-100,-100,0,0,100,0.00,40.00,0,-999,0,0.00
2013-3-22,40,34,31,-100,-100,-100,0,0,100,0.00,40.00,0,-999,0,0.00
2013-3-23,53,45,37,-100,-100,-100,0,0,100,0.00,40.00,0,-999,0,0.00
2013-3-24,40,35,32,-100,-100,-100,0,0,100,0.00,40.00,0,-999,0,0.00
2013-3-25,36,33,31,-100,-100,-100,0,0,100,0.00,40.00,0,-999,0,0.00
2013-3-26,40,35,31,-100,-100,-100,0,0,100,0.00,40.00,0,-999,0,0.00
2013-3-27,49,40,28,-100,-100,-100,0,0,100,0.00,40.00,0,-999,0,0.00
2013-3-28,53,43,34,-100,-100,-100,0,0,100,0.00,40.00,0,-999,0,0.00
2013-3-29,55,48,42,-100,-100,-100,0,0,100,0.00,40.00,0,-999,0,0.00
2013-3-30,55,46,38,-100,-100,-100,0,0,100,0.00,40.00,0,-999,0,0.00
2013-3-31,67,56,48,-100,-100,-100,0,0,100,0.00,40.00,0,-999,0,0.00
2013-4-1,51,44,40,-100,-100,-100,0,0,100,0.00,40.00,0,-999,0,0.00
2013-4-2,50,41,32,-100,-100,-100,0,0,100,0.00,40.00,0,-999,0,0.00
2013-4-3,49,42,33,-100,-100,-100,0,0,100,0.00,40.00,0,-999,0,0.00
2013-4-4,65,50,36,-100,-100,-100,0,0,100,0.00,40.00,0,-999,0,0.00
2013-4-5,69,53,40,-100,-100,-100,0,0,100,0.00,40.00,0,-999,0,0.00
2013-4-6,69,58,47,-100,-100,-100,0,0,100,0.00,40.00,0,-999,0,0.00
2013-4-7,73,64,54,-100,-100,-100,0,0,100,0.00,40.00,0,-999,0,0.00
2013-4-8,66,62,59,-100,-100,-100,0,0,100,0.00,40.00,0,-999,0,0.00
2013-4-23,65,54,43,-100,-100,-100,0,0,100,0.00,40.00,0,-999,0,0.00
2013-4-24,50,43,40,-100,-100,-100,0,0,100,0.00,40.00,0,-999,0,0.00
2013-4-25,60,52,39,-100,-100,-100,0,0,100,0.00,40.00,0,-999,0,0.00
2013-4-26,55,52,47,-100,-100,-100,0,0,100,0.00,40.00,0,-999,0,0.00
2013-4-27,55,52,48,-100,-100,-100,0,0,100,0.00,40.00,0,-999,0,0.00
2013-4-28,57,54,52,-100,-100,-100,0,0,100,0.00,40.00,0,-999,0,0.00
2013-4-29,72,60,49,-100,-100,-100,0,0,100,0.00,40.00,0,-999,0,0.00
2013-4-30,81,74,65,-100,-100,-100,0,0,100,0.00,40.00,0,-999,0,0.00
2013-5-1,76,68,58,-100,-100,-100,0,0,100,0.00,40.00,0,-999,0,0.00
2013-5-2,77,67,58,-100,-100,-100,0,0,100,0.00,40.00,0,-999,0,0.00
2013-5-3,54,51,46,-100,-100,-100,0,0,100,0.00,40.00,0,-999,0,0.00
2013-5-4,48,45,42,-100,-100,-100,0,0,100,0.00,40.00,0,-999,0,0.00
2013-5-5,56,51,47,-100,-100,-100,0,0,100,0.00,40.00,0,-999,0,0.00
2013-5-6,63,59,53,-100,-100,-100,0,0,100,0.00,40.00,0,-999,0,0.00
2013-5-7,73,61,55,-100,-100,-100,0,0,100,0.00,40.00,0,-999,0,0.00
2013-5-8,82,69,54,-100,-100,-100,0,0,100,0.00,40.00,0,-999,0,0.00
2013-5-9,73,67,61,-100,-100,-100,0,0,100,0.00,40.00,0,-999,0,0.00
2013-5-10,72,65,58,-100,-100,-100,0,0,100,0.00,40.00,0,-999,0,0.00
2013-5-11,68,61,54,-100,-100,-100,0,0,100,0.00,40.00,0,-999,0,0.00
2013-5-12,62,52,41,-100,-100,-100,0,0,100,0.00,40.00,0,-999,0,0.00
2013-5-13,70,58,41,-100,-100,-100,0,0,100,0.00,40.00,0,-999,0,0.00
2013-5-14,85,69,54,-100,-100,-100,0,0,100,0.00,40.00,0,-999,0,0.00
2013-5-15,83,75,69,-100,-100,-100,0,0,100,0.00,40.00,0,-999,0,0.00
2013-5-16,78,71,66,-100,-100,-100,0,0,100,0.00,40.00,0,-999,0,0.00
2013-5-17,73,68,65,-100,-100,-100,0,0,100,0.00,40.00,0,-999,0,0.00
2013-5-18,76,70,63,-100,-100,-100,0,0,100,0.00,40.00,0,-999,0,0.00
2013-5-19,85,75,68,-100,-100,-100,0,0,100,0.00,40.00,0,-999,0,0.00
2013-5-20,82,77,71,-100,-100,-100,0,0,100,0.00,40.00,0,-999,0,0.00
2013-5-21,75,68,63,-100,-100,-100,0,0,100,0.00,40.00,0,-999,0,0.00
2013-5-22,76,69,63,-100,-100,-100,0,0,100,0.00,40.00,0,-999,0,0.00
2013-5-23,63,60,55,-100,-100,-100,0,0,100,0.00,40.00,0,-999,0,0.00
2013-5-24,72,57,45,-100,-100,-100,0,0,100,0.00,40.00,0,-999,0,0.00
2013-5-25,69,60,47,-100,-100,-100,0,0,100,0.00,40.00,0,-999,0,0.00
2013-5-26,77,66,56,-100,-100,-100,0,0,100,0.00,40.00,0,-999,0,0.00
2013-5-27,81,72,65,-100,-100,-100,0,0,100,0.00,40.00,0,-999,0,0.00
2013-5-28,81,75,65,-100,-100,-100,0,0,100,0.00,40.00,0,-999,0,0.00
2013-5-29,83,76,67,-100,-100,-100,0,0,100,0.00,40.00,0,-999,0,0.00
2013-5-30,78,74,65,-100,-100,-100,0,0,100,0.00,40.00,0,-999,0,0.00
2013-5-31,77,71,63,-100,-100,-100,0,0,100,0.00,40.00,0,-999,0,0.00
2013-6-1,69,65,62,-100,-100,-100,0,0,100,0.00,40.00,0,-999,0,0.00
2013-6-2,69,65,60,-100,-100,-100,0,0,100,0.00,40.00,0,-999,0,0.00
2013-6-3,69,63,58,-100,-100,-100,0,0,100,0.00,40.00,0,-999,0,0.00
2013-6-4,72,64,53,-100,-100,-100,0,0,100,0.00,40.00,0,-999,0,0.00
2013-6-5,85,71,62,-100,-100,-100,0,0,100,0.00,40.00,0,-999,0,0.00
2013-6-6,83,74,67,-100,-100,-100,0,0,100,0.00,40.00,0,-999,0,0.00
2013-6-7,80,68,62,-100,-100,-100,0,0,100,0.00,40.00,0,-999,0,0.00
2013-6-8,78,70,58,-100,-100,-100,0,0,100,0.00,40.00,0,-999,0,0.00
2013-6-9,76,70,64,-100,-100,-100,0,0,100,0.00,40.00,0,-999,0,0.00
2013-6-10,80,70,62,-100,-100,-100,0,0,100,0.00,40.00,0,-999,0,0.00
2013-6-11,91,76,60,-100,-100,-100,0,0,100,0.00,40.00,0,-999,0,0.00
2013-6-12,91,84,75,-100,-100,-100,0,0,100,0.00,40.00,0,-999,0,0.00
2013-6-13,84,75,70,-100,-100,-100,0,0,100,0.00,40.00,0,-999,0,0.00
2013-6-14,83,74,59,-100,-100,-100,0,0,100,0.00,40.00,0,-999,0,0.00
2013-6-15,87,77,63,-100,-100,-100,0,0,100,0.00,40.00,0,-999,0,0.00
2013-6-16,80,74,69,-100,-100,-100,0,0,100,0.00,40.00,0,-999,0,0.00
2013-6-17,85,74,65,-100,-100,-100,0,0,100,0.00,40.00,0,-999,0,0.00
2013-6-18,89,74,62,-100,-100,-100,0,0,100,0.00,40.00,0,-999,0,0.00
2013-6-19,83,75,62,-100,-100,-100,0,0,100,0.00,40.00,0,-999,0,0.00
2013-6-20,87,76,66,-100,-100,-100,0,0,100,0.00,40.00,0,-999,0,0.00
2013-6-22,87,78,68,-100,-100,-100,0,0,100,0.00,40.00,0,-999,0,0.00
2013-6-23,81,72,66,-100,-100,-100,0,0,100,0.00,40.00,0,-999,0,0.00
2013-6-24,87,78,69,-100,-100,-100,0,0,100,0.00,40.00,0,-999,0,0.00
2013-6-25,91,80,73,-100,-100,-100,0,0,100,0.00,40.00,0,-999,0,0.00
2013-6-26,86,77,73,-100,-100,-100,0,0,100,0.00,40.00,0,-999,0,0.00
2013-6-27,96,83,72,-100,-100,-100,0,0,100,0.00,40.00,0,-999,0,0.00
2013-6-28,90,78,73,-100,-100,-100,0,0,100,0.00,40.00,0,-999,0,0.00
2013-6-29,83,74,68,-100,-100,-100,0,0,100,0.00,40.00,0,-999,0,0.00
2013-6-30,73,66,62,-100,-100,-100,0,0,100,0.00,40.00,0,-999,0,0.00
2013-7-1,69,66,63,-100,-100,-100,0,0,100,0.00,40.00,0,-999,0,0.00
2013-7-2,65,64,63,-100,-100,-100,0,0,100,0.00,40.00,0,-999,0,0.00
2013-7-3,76,69,63,-100,-100,-100,0,0,100,0.00,40.00,0,-999,0,0.00
2013-7-4,80,68,58,-100,-100,-100,0,0,100,0.00,40.00,0,-999,0,0.00
2013-7-5,76,71,65,-100,-100,-100,0,0,100,0.00,40.00,0,-999,0,0.00
2013-7-6,83,71,62,-100,-100,-100,0,0,100,0.00,40.00,0,-999,0,0.00
2013-7-7,86,74,62,-100,-100,-100,0,0,100,0.00,40.00,0,-999,0,0.00
2013-7-8,88,77,72,-100,-100,-100,0,0,100,0.00,40.00,0,-999,0,0.00
2013-7-9,91,83,76,-100,-100,-100,0,0,100,0.00,40.00,0,-999,0,0.00
2013-7-10,87,78,73,-100,-100,-100,0,0,100,0.00,40.00,0,-999,0,0.00
2013-7-11,81,74,66,-100,-100,-100,0,0,100,0.00,40.00,0,-999,0,0.00
2013-7-12,81,69,61,-100,-100,-100,0,0,100,0.00,40.00,0,-999,0,0.00
2013-7-13,80,73,62,-100,-100,-100,0,0,100,0.00,40.00,0,-999,0,0.00
2013-7-14,83,75,67,-100,-100,-100,0,0,100,0.00,40.00,0,-999,0,0.00
2013-7-15,84,78,73,-100,-100,-100,0,0,100,0.00,40.00,0,-999,0,0.00
2013-7-16,87,81,72,-100,-100,-100,0,0,100,0.00,40.00,0,-999,0,0.00
2013-7-17,91,81,73,-100,-100,-100,0,0,100,0.00,40.00,0,-999,0,0.00
2013-7-18,93,84,76,-100,-100,-100,0,0,100,0.00,40.00,0,-999,0,0.00
2013-7-19,90,80,73,-100,-100,-100,0,0,100,0.00,40.00,0,-999,0,0.00
2013-7-20,90,80,70,-100,-100,-100,0,0,100,0.00,40.00,0,-999,0,0.00
2013-7-21,80,73,68,-100,-100,-100,0,0,100,0.00,40.00,0,-999,0,0.00
2013-7-22,89,78,69,-100,-100,-100,0,0,100,0.00,40.00,0,-999,0,0.00
2013-7-23,92,82,72,-100,-100,-100,0,0,100,0.00,40.00,0,-999,0,0.00
2013-7-24,84,72,65,-100,-100,-100,0,0,100,0.00,40.00,0,-999,0,0.00
2013-7-25,80,68,58,-100,-100,-100,0,0,100,0.00,40.00,0,-999,0,0.00
2013-7-26,75,66,60,-100,-100,-100,0,0,100,0.00,40.00,0,-999,0,0.00
2013-7-27,78,71,61,-100,-100,-100,0,0,100,0.00,40.00,0,-999,0,0.00
2013-7-28,80,67,52,-100,-100,-100,0,0,100,0.00,40.00,0,-999,0,0.00
2013-7-29,77,65,57,-100,-100,-100,0,0,100,0.00,40.00,0,-999,0,0.00
2013-7-30,69,68,65,-100,-100,-100,0,0,100,0.00,40.00,0,-999,0,0.00
2013-7-31,89,72,69,-100,-100,-100,0,0,100,0.00,40.00,0,-999,0,0.00
2013-8-1,90,74,64,-100,-100,-100,0,0,100,0.00,40.00,0,-999,0,0.00
2013-8-2,82,72,65,-100,-100,-100,0,0,100,0.00,40.00,0,-999,0,0.00
2013-8-3,88,75,69,-100,-100,-100,0,0,100,0.00,40.00,0,-999,0,0.00
2013-8-4,76,71,63,-100,-100,-100,0,0,100,0.00,40.00,0,-999,0,0.00
2013-8-5,73,68,62,-100,-100,-100,0,0,100,0.00,40.00,0,-999,0,0.00
2013-8-6,84,73,68,-100,-100,-100,0,0,100,0.00,40.00,0,-999,0,0.00
2013-8-7,84,74,70,-100,-100,-100,0,0,100,0.00,40.00,0,-999,0,0.00
2013-8-8,79,72,67,-100,-100,-100,0,0,100,0.00,40.00,0,-999,0,0.00
2013-8-9,85,76,72,-100,-100,-100,0,0,100,0.00,40.00,0,-999,0,0.00
2013-8-10,90,78,68,-100,-100,-100,0,0,100,0.00,40.00,0,-999,0,0.00
2013-8-11,88,72,64,-100,-100,-100,0,0,100,0.00,40.00,0,-999,0,0.00
2013-8-12,80,74,69,-100,-100,-100,0,0,100,0.00,40.00,0,-999,0,0.00
2013-8-13,82,72,66,-100,-100,-100,0,0,100,0.00,40.00,0,-999,0,0.00
2013-8-14,74,64,56,-100,-100,-100,0,0,100,0.00,40.00,0,-999,0,0.00
2013-8-15,76,65,53,-100,-100,-100,0,0,100,0.00,40.00,0,-999,0,0.00
2013-8-16,76,68,56,-100,-100,-100,0,0,100,0.00,40.00,0,-999,0,0.00
2013-8-17,75,67,62,-100,-100,-100,0,0,100,0.00,40.00,0,-999,0,0.00
2013-8-18,79,71,65,-100,-100,-100,0,0,100,0.00,40.00,0,-999,0,0.00
2013-8-19,81,72,62,-100,-100,-100,0,0,100,0.00,40.00,0,-999,0,0.00
2013-8-20,86,73,63,-100,-100,-100,0,0,100,0.00,40.00,0,-999,0,0.00
2013-8-21,86,76,66,-100,-100,-100,0,0,100,0.00,40.00,0,-999,0,0.00
2013-8-22,94,82,70,-100,-100,-100,0,0,100,0.00,40.00,0,-999,0,0.00
2013-8-23,89,76,70,-100,-100,-100,0,0,100,0.00,40.00,0,-999,0,0.00
2013-8-24,85,74,67,-100,-100,-100,0,0,100,0.00,40.00,0,-999,0,0.00
2013-8-25,87,74,62,-100,-100,-100,0,0,100,0.00,40.00,0,-999,0,0.00
2013-8-26,88,79,70,-100,-100,-100,0,0,100,0.00,40.00,0,-999,0,0.00
2013-8-27,87,74,71,-100,-100,-100,0,0,100,0.00,40.00,0,-999,0,0.00
2013-8-28,94,91,78,-100,-100,-100,0,0,100,0.00,40.00,0,-999,0,0.00
2013-8-29,97,86,71,-100,-100,-100,0,0,100,0.00,40.00,0,-999,0,0.00
2013-8-30,98,83,73,-100,-100,-100,0,0,100,0.00,40.00,0,-999,0,0.00
2013-8-31,96,82,73,-100,-100,-100,0,0,100,0.00,40.00,0,-999,0,0.00
2013-9-1,87,79,72,-100,-100,-100,0,0,100,0.00,40.00,0,-999,0,0.00
2013-9-2,88,74,68,-100,-100,-100,0,0,100,0.00,40.00,0,-999,0,0.00
2013-9-3,76,65,59,-100,-100,-100,0,0,100,0.00,40.00,0,-999,0,0.00
2013-9-4,84,68,57,-100,-100,-100,0,0,100,0.00,40.00,0,-999,0,0.00
2013-9-5,83,71,58,-100,-100,-100,0,0,100,0.00,40.00,0,-999,0,0.00
2013-9-6,85,72,62,-100,-100,-100,0,0,100,0.00,40.00,0,-999,0,0.00
2013-9-7,90,74,64,-100,-100,-100,0,0,100,0.00,40.00,0,-999,0,0.00
2013-9-8,80,74,70,-100,-100,-100,0,0,100,0.00,40.00,0,-999,0,0.00
2013-9-9,93,81,73,-100,-100,-100,0,0,100,0.00,40.00,0,-999,0,0.00
2013-9-10,91,82,74,-100,-100,-100,0,0,100,0.00,40.00,0,-999,0,0.00
2013-9-11,97,81,71,-100,-100,-100,0,0,100,0.00,40.00,0,-999,0,0.00
2013-9-12,89,76,68,-100,-100,-100,0,0,100,0.00,40.00,0,-999,0,0.00
2013-9-13,75,64,54,-100,-100,-100,0,0,100,0.00,40.00,0,-999,0,0.00
2013-9-14,71,60,47,-100,-100,-100,0,0,100,0.00,40.00,0,-999,0,0.00
2013-9-15,77,66,54,-100,-100,-100,0,0,100,0.00,40.00,0,-999,0,0.00
2013-9-16,73,66,62,-100,-100,-100,0,0,100,0.00,40.00,0,-999,0,0.00
2013-9-17,76,68,58,-100,-100,-100,0,0,100,0.00,40.00,0,-999,0,0.00
2013-9-18,73,67,64,-100,-100,-100,0,0,100,0.00,40.00,0,-999,0,0.00
2013-9-19,86,75,69,-100,-100,-100,0,0,100,0.00,40.00,0,-999,0,0.00
2013-9-20,75,71,66,-100,-100,-100,0,0,100,0.00,40.00,0,-999,0,0.00
2013-9-21,73,62,53,-100,-100,-100,0,0,100,0.00,40.00,0,-999,0,0.00
2013-9-22,73,62,50,-100,-100,-100,0,0,100,0.00,40.00,0,-999,0,0.00
2013-9-23,74,60,50,-100,-100,-100,0,0,100,0.00,40.00,0,-999,0,0.00
2013-9-24,77,64,54,-100,-100,-100,0,0,100,0.00,40.00,0,-999,0,0.00
2013-9-25,79,69,61,-100,-100,-100,0,0,100,0.00,40.00,0,-999,0,0.00
2013-9-26,80,69,61,-100,-100,-100,0,0,100,0.00,40.00,0,-999,0,0.00
2013-9-27,79,67,58,-100,-100,-100,0,0,100,0.00,40.00,0,-999,0,0.00
2013-9-28,80,69,58,-100,-100,-100,0,0,100,0.00,40.00,0,-999,0,0.00
2013-9-29,69,64,61,-100,-100,-100,0,0,100,0.00,40.00,0,-999,0,0.00
2013-9-30,73,67,64,-100,-100,-100,0,0,100,0.00,40.00,0,-999,0,0.00
2013-10-1,70,70,70,-100,-100,-100,0,0,100,0.00,40.00,0,-999,0,0.00
2013-10-2,78,71,68,-100,-100,-100,0,0,100,0.00,40.00,0,-999,0,0.00
2013-10-3,83,75,67,-100,-100,-100,0,0,100,0.00,40.00,0,-999,0,0.00
2013-10-4,81,74,69,-100,-100,-100,0,0,100,0.00,40.00,0,-999,0,0.00
2013-10-5,75,69,65,-100,-100,-100,0,0,100,0.00,40.00,0,-999,0,0.00
2013-10-6,65,59,51,-100,-100,-100,0,0,100,0.00,40.00,0,-999,0,0.00
2013-10-7,68,56,49,-100,-100,-100,0,0,100,0.00,40.00,0,-999,0,0.00
2013-10-8,69,58,47,-100,-100,-100,0,0,100,0.00,40.00,0,-999,0,0.00
2013-10-9,76,61,47,-100,-100,-100,0,0,100,0.00,40.00,0,-999,0,0.00
2013-10-10,76,69,56,-100,-100,-100,0,0,100,0.00,40.00,0,-999,0,0.00
2013-10-11,77,64,58,-100,-100,-100,0,0,100,0.00,40.00,0,-999,0,0.00
2013-10-12,65,63,60,-100,-100,-100,0,0,100,0.00,40.00,0,-999,0,0.00
2013-10-13,74,62,49,-100,-100,-100,0,0,100,0.00,40.00,0,-999,0,0.00
2013-10-14,66,57,48,-100,-100,-100,0,0,100,0.00,40.00,0,-999,0,0.00
2013-10-15,65,63,61,-100,-100,-100,0,0,100,0.00,40.00,0,-999,0,0.00
2013-10-16,65,56,50,-100,-100,-100,0,0,100,0.00,40.00,0,-999,0,0.00
2013-10-17,59,52,47,-100,-100,-100,0,0,100,0.00,40.00,0,-999,0,0.00
2013-10-18,67,55,44,-100,-100,-100,0,0,100,0.00,40.00,0,-999,0,0.00
2013-10-19,55,48,43,-100,-100,-100,0,0,100,0.00,40.00,0,-999,0,0.00
2013-10-20,64,48,40,-100,-100,-100,0,0,100,0.00,40.00,0,-999,0,0.00
2013-10-21,55,49,41,-100,-100,-100,0,0,100,0.00,40.00,0,-999,0,0.00
2013-10-22,56,45,35,-100,-100,-100,0,0,100,0.00,40.00,0,-999,0,0.00
2013-10-23,46,42,38,-100,-100,-100,0,0,100,0.00,40.00,0,-999,0,0.00
2013-10-24,47,40,34,-100,-100,-100,0,0,100,0.00,40.00,0,-999,0,0.00
2013-10-25,50,38,28,-100,-100,-100,0,0,100,0.00,40.00,0,-999,0,0.00
2013-10-26,65,47,35,-100,-100,-100,0,0,100,0.00,40.00,0,-999,0,0.00
2013-10-27,57,46,32,-100,-100,-100,0,0,100,0.00,40.00,0,-999,0,0.00
2013-10-28,65,46,33,-100,-100,-100,0,0,100,0.00,40.00,0,-999,0,0.00
2013-10-29,57,50,46,-100,-100,-100,0,0,100,0.00,40.00,0,-999,0,0.00
2013-10-30,73,65,57,-100,-100,-100,0,0,100,0.00,40.00,0,-999,0,0.00
2013-10-31,63,60,54,-100,-100,-100,0,0,100,0.00,40.00,0,-999,0,0.00
2013-11-1,62,54,46,-100,-100,-100,0,0,100,0.00,40.00,0,-999,0,0.00
2013-11-2,54,48,40,-100,-100,-100,0,0,100,0.00,40.00,0,-999,0,0.00
2013-11-3,58,48,36,-100,-100,-100,0,0,100,0.00,40.00,0,-999,0,0.00
2013-11-4,57,51,44,-100,-100,-100,0,0,100,0.00,40.00,0,-999,0,0.00
2013-11-5,63,56,50,-100,-100,-100,0,0,100,0.00,40.00,0,-999,0,0.00
2013-11-6,58,52,40,-100,-100,-100,0,0,100,0.00,40.00,0,-999,0,0.00
2013-11-7,52,42,33,-100,-100,-100,0,0,100,0.00,40.00,0,-999,0,0.00
2013-11-8,53,44,33,-100,-100,-100,0,0,100,0.00,40.00,0,-999,0,0.00
2013-11-9,64,51,41,-100,-100,-100,0,0,100,0.00,40.00,0,-999,0,0.00
2013-11-10,55,45,36,-100,-100,-100,0,0,100,0.00,40.00,0,-999,0,0.00
2013-11-11,57,47,36,-100,-100,-100,0,0,100,0.00,40.00,0,-999,0,0.00
2013-11-12,39,32,24,-100,-100,-100,0,0,100,0.00,40.00,0,-999,0,0.00
2013-11-13,40,31,20,-100,-100,-100,0,0,100,0.00,40.00,0,-999,0,0.00
2013-11-14,52,39,30,-100,-100,-100,0,0,100,0.00,40.00,0,-999,0,0.00
2013-11-15,52,46,41,-100,-100,-100,0,0,100,0.00,40.00,0,-999,0,0.00
2013-11-16,63,58,47,-100,-100,-100,0,0,100,0.00,40.00,0,-999,0,0.00
2013-11-17,73,63,54,-100,-100,-100,0,0,100,0.00,40.00,0,-999,0,0.00
2013-11-18,57,46,37,-100,-100,-100,0,0,100,0.00,40.00,0,-999,0,0.00
2013-11-19,46,38,32,-100,-100,-100,0,0,100,0.00,40.00,0,-999,0,0.00
2013-11-20,50,40,32,-100,-100,-100,0,0,100,0.00,40.00,0,-999,0,0.00
2013-11-21,53,50,48,-100,-100,-100,0,0,100,0.00,40.00,0,-999,0,0.00
2013-11-22,53,45,38,-100,-100,-100,0,0,100,0.00,40.00,0,-999,0,0.00
2013-11-23,35,30,22,-100,-100,-100,0,0,100,0.00,40.00,0,-999,0,0.00
2013-11-24,30,24,15,-100,-100,-100,0,0,100,0.00,40.00,0,-999,0,0.00
2013-11-25,34,31,28,-100,-100,-100,0,0,100,0.00,40.00,0,-999,0,0.00
2013-11-26,43,33,23,-100,-100,-100,0,0,100,0.00,40.00,0,-999,0,0.00
2013-11-27,29,23,19,-100,-100,-100,0,0,100,0.00,40.00,0,-999,0,0.00
2013-11-28,41,30,19,-100,-100,-100,0,0,100,0.00,40.00,0,-999,0,0.00
2013-11-29,43,34,27,-100,-100,-100,0,0,100,0.00,40.00,0,-999,0,0.00
2013-11-30,52,42,32,-100,-100,-100,0,0,100,0.00,40.00,0,-999,0,0.00
2013-12-1,62,48,39,-100,-100,-100,0,0,100,0.00,40.00,0,-999,0,0.00
2013-12-2,56,45,40,-100,-100,-100,0,0,100,0.00,40.00,0,-999,0,0.00
2013-12-3,52,50,43,-100,-100,-100,0,0,100,0.00,40.00,0,-999,0,0.00
2013-12-4,65,57,50,-100,-100,-100,0,0,100,0.00,40.00,0,-999,0,0.00
2013-12-5,50,33,25,-100,-100,-100,0,0,100,0.00,40.00,0,-999,0,0.00
2013-12-6,24,22,19,-100,-100,-100,0,0,100,0.00,40.00,0,-999,0,0.00
2013-12-7,20,16,10,-100,-100,-100,0,0,100,0.00,40.00,0,-999,0,0.00
2013-12-8,28,24,18,-100,-100,-100,0,0,100,0.00,40.00,0,-999,0,0.00
2013-12-9,30,27,25,-100,-100,-100,0,0,100,0.00,40.00,0,-999,0,0.00
2013-12-10,32,24,15,-100,-100,-100,0,0,100,0.00,40.00,0,-999,0,0.00
2013-12-11,33,22,18,-100,-100,-100,0,0,100,0.00,40.00,0,-999,0,0.00
2013-12-12,25,15,5,-100,-100,-100,0,0,100,0.00,40.00,0,-999,0,0.00
2013-12-13,36,25,19,-100,-100,-100,0,0,100,0.00,40.00,0,-999,0,0.00
2013-12-14,34,32,29,-100,-100,-100,0,0,100,0.00,40.00,0,-999,0,0.00
2013-12-15,30,28,26,-100,-100,-100,0,0,100,0.00,40.00,0,-999,0,0.00
2013-12-16,44,35,32,-100,-100,-100,0,0,100,0.00,40.00,0,-999,0,0.00
2013-12-17,36,32,28,-100,-100,-100,0,0,100,0.00,40.00,0,-999,0,0.00
2013-12-18,42,35,26,-100,-100,-100,0,0,100,0.00,40.00,0,-999,0,0.00
2013-12-19,54,46,40,-100,-100,-100,0,0,100,0.00,40.00,0,-999,0,0.00
2013-12-20,61,56,49,-100,-100,-100,0,0,100,0.00,40.00,0,-999,0,0.00
2013-12-21,43,38,36,-100,-100,-100,0,0,100,0.00,40.00,0,-999,0,0.00
2013-12-22,40,36,32,-100,-100,-100,0,0,100,0.00,40.00,0,-999,0,0.00
2013-12-23,31,28,25,-100,-100,-100,0,0,100,0.00,40.00,0,-999,0,0.00
2013-12-24,22,17,10,-100,-100,-100,0,0,100,0.00,40.00,0,-999,0,0.00
2013-12-25,36,28,20,-100,-100,-100,0,0,100,0.00,40.00,0,-999,0,0.00
2013-12-26,43,34,24,-100,-100,-100,0,0,100,0.00,40.00,0,-999,0,0.00
2013-12-27,48,39,30,-100,-100,-100,0,0,100,0.00,40.00,0,-999,0,0.00
2013-12-28,48,40,35,-100,-100,-100,0,0,100,0.00,40.00,0,-999,0,0.00
2013-12-29,43,33,23,-100,-100,-100,0,0,100,0.00,40.00,0,-999,0,0.00
2013-12-30,25,21,14,-100,-100,-100,0,0,100,0.00,40.00,0,-999,0,0.00
2013-12-31,38,32,25,-100,-100,-100,0,0,100,0.00,40.00,0,-999,0,0.00
2014-1-1,43,37,30,-100,-100,-100,0,0,100,0.00,40.00,0,-999,0,0.00
2014-1-2,32,20,12,-100,-100,-100,0,0,100,0.00,40.00,0,-999,0,0.00